Location: Antichan
(42.9728°N, 0.6667°E)
Time: 14:05:45
(UTC+00:00)

CZ-2C R/B - Pass Details

Date: 15 August 2020
Orbit: 785 x 870 km, 98.3° (Epoch: 24 September)

Event Time Altitude Azimuth Distance (km) Brightness Sun altitude
Rises 19:48:13 0° 13° (NNE) 3,288 6.0 -9.0°
Reaches altitude 10° 19:50:32 10° 15° (NNE) 2,360 5.2 -9.4°
Maximum altitude 19:55:45 83° 103° (ESE) 808 2.5 -10.2°
Drops below altitude 10° 20:01:00 10° 192° (SSW) 2,380 4.9 -11.1°
Sets 20:03:21 0° 193° (SSW) 3,319 5.6 -11.4°
